Time,TemperatureF,DewpointF,PressureIn,WindDirection,WindDirectionDegrees,WindSpeedMPH,WindSpeedGustMPH,Humidity,HourlyPrecipIn,Conditions,Clouds,dailyrainin,SoftwareType,DateUTC
2013-07-24 00:01:00,72.0,72.0,29.68,WNW,287,0.0,18.0,99,0.00,,,0.05,,2013-07-24 04:01:00,
2013-07-24 00:11:00,72.0,72.0,29.68,WNW,287,0.0,18.0,99,0.00,,,0.05,,2013-07-24 04:11:00,
2013-07-24 00:22:00,72.0,72.0,29.67,WNW,287,0.0,0.0,99,0.00,,,0.05,,2013-07-24 04:22:00,
2013-07-24 00:32:00,72.0,72.0,29.67,WNW,287,0.0,0.0,99,0.00,,,0.05,,2013-07-24 04:32:00,
2013-07-24 00:43:00,72.0,72.0,29.67,WNW,287,0.0,0.0,99,0.00,,,0.05,,2013-07-24 04:43:00,
2013-07-24 00:53:00,71.0,71.0,29.67,WNW,287,0.0,18.0,99,0.00,,,0.05,,2013-07-24 04:53:00,
2013-07-24 01:02:00,71.0,71.0,29.67,WNW,287,0.0,18.0,99,0.00,,,0.05,,2013-07-24 05:02:00,
2013-07-24 01:11:00,71.0,71.0,29.67,WNW,287,0.0,18.0,99,0.00,,,0.05,,2013-07-24 05:11:00,
2013-07-24 01:22:00,71.0,71.0,29.66,WNW,287,0.0,18.0,99,0.00,,,0.04,,2013-07-24 05:22:00,
2013-07-24 01:33:00,71.0,71.0,29.66,WNW,287,0.0,18.0,99,0.00,,,0.04,,2013-07-24 05:33:00,
2013-07-24 01:43:00,71.0,71.0,29.66,WNW,287,0.0,18.0,99,0.00,,,0.04,,2013-07-24 05:43:00,
2013-07-24 01:52:00,71.0,71.0,29.66,WNW,287,0.0,18.0,99,0.00,,,0.04,,2013-07-24 05:52:00,
2013-07-24 02:01:00,71.0,71.0,29.66,WNW,287,0.0,18.0,99,0.00,,,0.04,,2013-07-24 06:01:00,
2013-07-24 02:24:00,71.0,71.0,29.67,WNW,287,0.0,18.0,99,0.00,,,0.04,,2013-07-24 06:24:00,
2013-07-24 02:34:00,71.0,71.0,29.67,WNW,287,0.0,18.0,99,0.00,,,0.04,,2013-07-24 06:34:00,
2013-07-24 02:43:00,71.0,71.0,29.67,WNW,287,0.0,18.0,99,0.00,,,0.04,,2013-07-24 06:43:00,
2013-07-24 02:53:00,71.0,71.0,29.66,WNW,287,0.0,18.0,99,0.00,,,0.04,,2013-07-24 06:53:00,
2013-07-24 03:02:00,71.0,71.0,29.66,WNW,287,0.0,18.0,99,0.00,,,0.04,,2013-07-24 07:02:00,
2013-07-24 03:12:00,71.0,71.0,29.66,WNW,287,0.0,18.0,99,0.00,,,0.04,,2013-07-24 07:12:00,
2013-07-24 03:22:00,70.0,70.0,29.66,WNW,287,0.0,18.0,99,0.00,,,0.03,,2013-07-24 07:22:00,
2013-07-24 03:32:00,70.0,70.0,29.66,WNW,287,0.0,18.0,99,0.00,,,0.03,,2013-07-24 07:32:00,
2013-07-24 03:43:00,70.0,70.0,29.66,WNW,287,0.0,18.0,99,0.00,,,0.03,,2013-07-24 07:43:00,
2013-07-24 03:53:00,70.0,70.0,29.66,WNW,287,0.0,18.0,99,0.00,,,0.02,,2013-07-24 07:53:00,
2013-07-24 04:02:00,70.0,70.0,29.66,WNW,287,0.0,18.0,99,0.00,,,0.02,,2013-07-24 08:02:00,
2013-07-24 04:12:00,70.0,70.0,29.66,WNW,287,0.0,18.0,99,0.00,,,0.02,,2013-07-24 08:12:00,
2013-07-24 04:32:00,71.0,71.0,29.67,WNW,287,0.0,18.0,99,0.00,,,0.02,,2013-07-24 08:32:00,
2013-07-24 04:43:00,71.0,71.0,29.67,WNW,287,0.0,18.0,99,0.00,,,0.02,,2013-07-24 08:43:00,
2013-07-24 04:52:00,70.0,70.0,29.67,WNW,287,0.0,18.0,99,0.00,,,0.02,,2013-07-24 08:52:00,
2013-07-24 05:02:00,70.0,70.0,29.67,WNW,287,0.0,18.0,99,0.00,,,0.02,,2013-07-24 09:02:00,
2013-07-24 05:12:00,70.0,70.0,29.67,WNW,287,0.0,18.0,99,0.00,,,0.02,,2013-07-24 09:12:00,
2013-07-24 05:22:00,70.0,70.0,29.67,WNW,287,0.0,18.0,99,0.00,,,0.02,,2013-07-24 09:22:00,
2013-07-24 05:32:00,70.0,70.0,29.67,WNW,287,0.0,18.0,99,0.00,,,0.02,,2013-07-24 09:32:00,
2013-07-24 05:43:00,70.0,70.0,29.67,WNW,287,0.0,18.0,99,0.00,,,0.02,,2013-07-24 09:43:00,
2013-07-24 05:53:00,71.0,71.0,29.68,WNW,287,0.0,18.0,99,0.00,,,0.02,,2013-07-24 09:53:00,
2013-07-24 06:02:00,71.0,71.0,29.68,WNW,287,0.0,18.0,99,0.00,,,0.02,,2013-07-24 10:02:00,
2013-07-24 06:12:00,71.0,71.0,29.68,WNW,287,0.0,18.0,99,0.00,,,0.02,,2013-07-24 10:12:00,
2013-07-24 06:22:00,71.0,71.0,29.68,WNW,287,0.0,18.0,99,0.00,,,0.02,,2013-07-24 10:22:00,
2013-07-24 06:33:00,71.0,71.0,29.68,WNW,287,0.0,18.0,99,0.00,,,0.02,,2013-07-24 10:33:00,
2013-07-24 06:43:00,71.0,71.0,29.68,WNW,287,0.0,18.0,99,0.00,,,0.02,,2013-07-24 10:43:00,
2013-07-24 06:53:00,71.0,71.0,29.68,WNW,287,0.0,18.0,99,0.00,,,0.02,,2013-07-24 10:53:00,
2013-07-24 09:32:00,78.0,78.0,29.73,WNW,302,3.0,18.0,99,0.00,,,0.00,,2013-07-24 13:32:00,
2013-07-24 09:43:00,78.0,78.0,29.73,WNW,302,3.0,18.0,99,0.00,,,0.00,,2013-07-24 13:43:00,
2013-07-24 09:53:00,80.0,78.0,29.74,North,6,2.0,18.0,93,0.00,,,0.00,,2013-07-24 13:53:00,
2013-07-24 10:02:00,80.0,78.0,29.74,North,6,2.0,18.0,93,0.00,,,0.00,,2013-07-24 14:02:00,
2013-07-24 10:12:00,80.0,78.0,29.74,North,6,2.0,18.0,93,0.00,,,0.00,,2013-07-24 14:12:00,
2013-07-24 10:22:00,80.0,77.0,29.75,WSW,240,1.0,18.0,90,0.00,,,0.00,,2013-07-24 14:22:00,
2013-07-24 10:32:00,80.0,77.0,29.75,WSW,240,1.0,18.0,90,0.00,,,0.00,,2013-07-24 14:32:00,
2013-07-24 10:43:00,80.0,77.0,29.75,WSW,240,1.0,18.0,90,0.00,,,0.00,,2013-07-24 14:43:00,
2013-07-24 10:55:00,80.0,77.0,29.75,WSW,240,1.0,18.0,90,0.00,,,0.00,,2013-07-24 14:55:00,
2013-07-24 11:22:00,82.0,77.0,29.76,North,350,0.0,18.0,85,0.00,,,0.00,,2013-07-24 15:22:00,
2013-07-24 11:33:00,82.0,77.0,29.76,North,350,0.0,18.0,85,0.00,,,0.00,,2013-07-24 15:33:00,
2013-07-24 11:43:00,82.0,77.0,29.76,North,350,0.0,18.0,85,0.00,,,0.00,,2013-07-24 15:43:00,
2013-07-24 11:53:00,81.0,77.0,29.76,WNW,299,0.0,18.0,88,0.00,,,0.00,,2013-07-24 15:53:00,
2013-07-24 12:02:00,81.0,77.0,29.76,WNW,299,0.0,18.0,88,0.00,,,0.00,,2013-07-24 16:02:00,
2013-07-24 12:12:00,81.0,77.0,29.76,WNW,299,0.0,18.0,88,0.00,,,0.00,,2013-07-24 16:12:00,
2013-07-24 12:22:00,81.0,76.0,29.77,NW,304,0.0,18.0,84,0.00,,,0.00,,2013-07-24 16:22:00,
2013-07-24 12:33:00,81.0,76.0,29.77,NW,304,0.0,18.0,84,0.00,,,0.00,,2013-07-24 16:33:00,
2013-07-24 12:43:00,81.0,76.0,29.77,NW,304,0.0,18.0,84,0.00,,,0.00,,2013-07-24 16:43:00,
2013-07-24 12:53:00,81.0,76.0,29.77,NW,318,0.0,18.0,85,0.00,,,0.00,,2013-07-24 16:53:00,
2013-07-24 13:03:00,81.0,76.0,29.77,NW,318,0.0,18.0,85,0.00,,,0.00,,2013-07-24 17:03:00,
2013-07-24 13:12:00,81.0,76.0,29.77,NW,318,0.0,18.0,85,0.00,,,0.00,,2013-07-24 17:12:00,
2013-07-24 13:22:00,81.0,76.0,29.77,NW,326,2.0,18.0,85,0.00,,,0.00,,2013-07-24 17:22:00,
2013-07-24 13:32:00,80.0,78.0,29.77,SE,127,0.0,18.0,93,0.00,,,0.00,,2013-07-24 17:32:00,
2013-07-24 13:33:00,81.0,76.0,29.77,NW,326,2.0,18.0,85,0.00,,,0.00,,2013-07-24 17:33:00,
2013-07-24 13:43:00,81.0,76.0,29.77,NW,326,2.0,18.0,85,0.00,,,0.00,,2013-07-24 17:43:00,
2013-07-24 13:53:00,80.0,78.0,29.77,SE,127,0.0,18.0,93,0.00,,,0.00,,2013-07-24 17:53:00,
2013-07-24 14:02:00,80.0,78.0,29.77,SE,127,0.0,18.0,93,0.00,,,0.00,,2013-07-24 18:02:00,
2013-07-24 14:12:00,80.0,78.0,29.77,SE,127,0.0,18.0,93,0.00,,,0.00,,2013-07-24 18:12:00,
2013-07-24 14:22:00,80.0,78.0,29.77,SE,127,0.0,18.0,93,0.00,,,0.00,,2013-07-24 18:22:00,
2013-07-24 14:52:00,78.0,78.0,29.80,NW,305,6.0,18.0,99,0.28,,,0.28,,2013-07-24 18:52:00,
2013-07-24 15:03:00,78.0,78.0,29.80,NW,305,6.0,18.0,99,0.28,,,0.28,,2013-07-24 19:03:00,
2013-07-24 15:12:00,78.0,78.0,29.80,NW,305,6.0,18.0,99,0.28,,,0.28,,2013-07-24 19:12:00,
2013-07-24 15:32:00,75.0,75.0,29.80,NW,306,0.0,18.0,99,0.31,,,0.33,,2013-07-24 19:32:00,
2013-07-24 15:43:00,75.0,75.0,29.80,NW,306,0.0,18.0,99,0.31,,,0.33,,2013-07-24 19:43:00,
2013-07-24 15:53:00,75.0,75.0,29.80,NW,306,0.0,18.0,99,0.05,,,0.33,,2013-07-24 19:53:00,
2013-07-24 16:02:00,75.0,75.0,29.80,NW,306,0.0,18.0,99,0.05,,,0.33,,2013-07-24 20:02:00,
2013-07-24 16:13:00,75.0,75.0,29.80,NW,306,0.0,18.0,99,0.05,,,0.33,,2013-07-24 20:13:00,
2013-07-24 16:23:00,77.0,77.0,29.80,NW,306,0.0,18.0,99,0.00,,,0.33,,2013-07-24 20:23:00,
2013-07-24 16:32:00,77.0,77.0,29.80,NW,306,0.0,18.0,99,0.00,,,0.33,,2013-07-24 20:32:00,
2013-07-24 16:43:00,77.0,77.0,29.80,NW,306,0.0,18.0,99,0.00,,,0.33,,2013-07-24 20:43:00,
2013-07-24 16:53:00,76.0,76.0,29.80,NW,324,5.0,18.0,99,0.00,,,0.33,,2013-07-24 20:53:00,
2013-07-24 17:03:00,76.0,76.0,29.80,NW,324,5.0,18.0,99,0.00,,,0.33,,2013-07-24 21:03:00,
2013-07-24 17:12:00,76.0,76.0,29.80,NW,324,5.0,18.0,99,0.00,,,0.33,,2013-07-24 21:12:00,
2013-07-24 17:22:00,78.0,76.0,29.81,NW,318,2.0,18.0,94,0.00,,,0.33,,2013-07-24 21:22:00,
2013-07-24 17:32:00,78.0,76.0,29.81,NW,318,2.0,18.0,94,0.00,,,0.33,,2013-07-24 21:32:00,
2013-07-24 17:44:00,78.0,76.0,29.81,NW,318,2.0,18.0,94,0.00,,,0.33,,2013-07-24 21:44:00,
2013-07-24 17:53:00,78.0,76.0,29.82,NW,308,1.0,18.0,93,0.00,,,0.33,,2013-07-24 21:53:00,
2013-07-24 18:02:00,78.0,76.0,29.82,NW,308,1.0,18.0,93,0.00,,,0.33,,2013-07-24 22:02:00,
2013-07-24 18:12:00,78.0,76.0,29.82,NW,308,1.0,18.0,93,0.00,,,0.33,,2013-07-24 22:12:00,
2013-07-24 18:22:00,78.0,76.0,29.82,NW,308,1.0,18.0,93,0.00,,,0.33,,2013-07-24 22:22:00,
2013-07-24 19:32:00,76.0,74.0,29.88,NW,319,0.0,18.0,92,0.00,,,0.33,,2013-07-24 23:32:00,
2013-07-24 19:52:00,76.0,74.0,29.88,NW,319,0.0,18.0,92,0.00,,,0.33,,2013-07-24 23:52:00,
2013-07-24 20:02:00,76.0,74.0,29.88,NW,319,0.0,18.0,92,0.00,,,0.33,,2013-07-25 00:02:00,
2013-07-24 20:12:00,76.0,74.0,29.88,NW,319,0.0,18.0,92,0.00,,,0.33,,2013-07-25 00:12:00,
2013-07-24 20:22:00,76.0,74.0,29.88,NW,319,0.0,18.0,92,0.00,,,0.33,,2013-07-25 00:22:00,
2013-07-24 20:53:00,74.0,72.0,29.90,NNW,346,2.0,18.0,92,0.00,,,0.33,,2013-07-25 00:53:00,
2013-07-24 21:03:00,74.0,72.0,29.90,NNW,346,2.0,18.0,92,0.00,,,0.33,,2013-07-25 01:03:00,
2013-07-24 21:12:00,74.0,72.0,29.90,NNW,346,2.0,18.0,92,0.00,,,0.33,,2013-07-25 01:12:00,
2013-07-24 21:22:00,74.0,72.0,29.90,NNW,346,2.0,18.0,92,0.00,,,0.33,,2013-07-25 01:22:00,
2013-07-24 21:32:00,74.0,72.0,29.90,NNW,346,2.0,18.0,92,0.00,,,0.33,,2013-07-25 01:32:00,
2013-07-24 21:53:00,72.0,70.0,29.92,West,280,1.0,18.0,94,0.00,,,0.33,,2013-07-25 01:53:00,
2013-07-24 22:02:00,72.0,70.0,29.92,West,280,1.0,18.0,94,0.00,,,0.33,,2013-07-25 02:02:00,
2013-07-24 22:10:00,71.0,69.0,29.93,NW,322,1.0,18.0,94,0.00,,,0.33,,2013-07-25 02:10:00,
2013-07-24 22:12:00,72.0,70.0,29.92,West,280,1.0,18.0,94,0.00,,,0.33,,2013-07-25 02:12:00,
2013-07-24 22:43:00,71.0,69.0,29.93,NW,322,1.0,18.0,94,0.00,,,0.33,,2013-07-25 02:43:00,
2013-07-24 22:53:00,71.0,69.0,29.93,NW,322,1.0,18.0,94,0.00,,,0.33,,2013-07-25 02:53:00,
2013-07-24 23:02:00,71.0,69.0,29.93,NW,322,1.0,18.0,94,0.00,,,0.33,,2013-07-25 03:02:00,
2013-07-24 23:24:00,71.0,69.0,29.95,NNW,338,4.0,18.0,92,0.00,,,0.33,,2013-07-25 03:24:00,
2013-07-24 23:40:00,71.0,69.0,29.95,NNW,338,4.0,18.0,92,0.00,,,0.33,,2013-07-25 03:40:00,
2013-07-24 23:53:00,71.0,69.0,29.96,NNE,33,3.0,18.0,92,0.00,,,0.33,,2013-07-25 03:53:00,